Location: Sternwarte Stuttgart
(48.7670°N, 9.1830°E)
Time: 05:42:51
(UTC+01:00)

MSX - Pass Details

Date: 24 January 2019
Orbit: 894 x 907 km, 98.7° (Epoch: 22 February)

Event Time Altitude Azimuth Distance (km) Brightness Sun altitude
Rises 05:37:40 0° 12° (NNE) 3,525 7.0 -23.8°
Reaches altitude 10° 05:40:06 10° 10° (N) 2,579 6.3 -23.4°
Maximum altitude 05:45:46 65° 290° (WNW) 984 3.7 -22.4°
Drops below altitude 10° 05:51:24 10° 210° (SSW) 2,560 6.0 -21.5°
Sets 05:53:49 0° 207° (SSW) 3,496 6.7 -21.1°
